Hourly Weather Roundup
Issued by NWS Central Illinois

Current Version | Previous Version | Text Only | Print | Product List | Glossary On
Versions: 1 2 3 4 5 6 7 8 9 10 11 12 13 14 15 16 17 18 19 20 21 22 23 24 25 26 27 28 29 30 31 32 33 34 35 36 37 38 39 40 41 42 43 44 45 46 47 48 49 50
037
NZUS43 KILX 200410
HWRILX

Area Weather Roundup
National Weather Service Lincoln IL
1000 PM CST SUN JAN 19 2020

NOTE:  "FAIR" indicates few or no clouds below 12,000 feet, with
       no sigificant weather and/or obstructions to visibility.


CITY           SKY/WX    TMP DP  RH WIND       PRES   REMARKS
Bloomington    FAIR       8   5  87 NW13      30.52R WCI  -8
Champaign      FAIR      11   7  84 NW10      30.51S WCI  -3
Danville       CLOUDY    13   8  81 NW9       30.49R WCI   1
Decatur        FAIR      10   4  76 NW14      30.54R WCI  -6
Effingham      FLURRIES  14  -4  44 NW9       30.56S WCI   2
Flora          FLURRIES  16   9  73 NW10      30.55S WCI   3
Galesburg      FLURRIES   9   3  77 W9        30.57S WCI  -4
Jacksonville   CLOUDY    10   6  81 NW8       30.58S WCI  -1
Lacon          FAIR       8   3  82 NW6       30.55S WCI  -2
Lawrenceville  FLURRIES  16   9  74 NW10      30.54R WCI   4
Litchfield     FLURRIES  13   7  78 NW9       30.57R WCI   1
$$


CITY           SKY/WX    TMP DP  RH WIND       PRES   REMARKS
Lincoln        FAIR      10   3  72 NW9       30.56S WCI  -3
Macomb         CLOUDY     8   3  81 NW13      30.61R WCI  -8
Mattoon        LGT SNOW  12   8  84 NW15      30.52R FOG     WCI  -4
Mt Carmel AP   FLURRIES  16  10  77 N12       30.54R WCI   3
Olney-Noble AP FLURRIES  16  10  79 NW9       30.55S WCI   4
Paris AP       CLOUDY    16  11  81 NW8       30.53R WCI   5
Peoria         FAIR       8   4  83 NW7       30.56S WCI  -3
Pontiac        FAIR      10   5  80 N12       30.53S WCI  -5
Rantoul        CLOUDY    11   7  84 NW15      30.51S WCI  -6
Robinson       FLURRIES  14   9  81 NW9       30.55R WCI   2
Springfield    CLOUDY    11   4  73 NW9       30.57R WCI  -2
Taylorville    FLURRIES  12   7  79 NW9       30.56S WCI   0
$$

...REGIONAL REPORTS...


CITY           SKY/WX    TMP DP  RH WIND       PRES   REMARKS
Chicago O`Hare FAIR      17  10  74 NW8       30.45R WCI   7
Kankakee       FAIR      12   7  81 NW10G16   30.50R WCI  -1
La Salle       FAIR       6   2  82 W9        30.53S WCI  -8
Moline         CLOUDY     8   2  76 W9        30.57R WCI  -5
Mount Sterling FLURRIES  10   5  80 NW12      30.58S WCI  -5
Mount Vernon   FLURRIES  17  11  77 VRB5      30.55S WCI  10
Pittsfield     CLOUDY    13   9  82 NW12      30.58S WCI  -1
Quincy         CLOUDY    11   4  73 NW12      30.58F WCI  -3
Rockford       FAIR      11   5  77 NW9       30.52S WCI  -2
$$


CITY           SKY/WX    TMP DP  RH WIND       PRES   REMARKS
Burlington     CLOUDY     8   1  73 NW9       30.59R WCI  -5
Cedar Rapids   CLOUDY     6   2  83 NW12      30.57R WCI  -9
Des Moines     FLURRIES   3  -3  76 NW13      30.61S WCI -14
Kirksville     CLOUDY    10   3  73 N8        30.60R WCI  -2
Ottumwa        CLOUDY     5  -1  76 NW12      30.60S WCI -11
St Louis       FLURRIES  16   8  71 N10       30.57S WCI   4
$$


CITY           SKY/WX    TMP DP  RH WIND       PRES   REMARKS
Terre Haute    CLOUDY    15   9  76 NW10      30.52R WCI   2
Evansville     CLOUDY    18  10  71 NW8       30.54R WCI   8
Indianapolis   FLURRIES  14   9  80 W10       30.46R WCI   1
Lafayette      FAIR      12   7  80 W10       30.49S WCI  -1
Madison        FAIR      11   6  81 NW5       30.49R WCI   3
Milwaukee      CLOUDY    21  12  68 NW12      30.46R WCI   9
$$






USA.gov is the U.S. government's official web portal to all federal, state and local government web resources and services.